Time,TemperatureF,DewpointF,PressureIn,WindDirection,WindDirectionDegrees,WindSpeedMPH,WindSpeedGustMPH,Humidity,HourlyPrecipIn,Conditions,Clouds,dailyrainin,SoftwareType,DateUTC
2013-04-02 00:06:00,60.6,60.6,29.91,WNW,293,0.0,0.0,100,0.00,,,0.00,WSDL version 420,2013-04-01 13:06:00,
2013-04-02 00:11:00,60.8,60.8,29.91,WNW,293,0.0,0.0,100,0.00,,,0.00,WSDL version 420,2013-04-01 13:11:00,
2013-04-02 00:16:00,60.8,60.8,29.91,WNW,293,0.0,0.0,100,0.00,,,0.00,WSDL version 420,2013-04-01 13:16:00,
2013-04-02 00:21:00,60.9,60.9,29.91,WNW,293,0.0,0.0,100,0.00,,,0.00,WSDL version 420,2013-04-01 13:21:00,
2013-04-02 00:28:00,60.8,60.8,29.91,WNW,293,0.0,0.0,100,0.00,,,0.00,WSDL version 420,2013-04-01 13:28:00,
2013-04-02 00:38:00,60.7,60.7,29.91,WNW,293,0.0,0.0,100,0.00,,,0.00,WSDL version 420,2013-04-01 13:38:00,
2013-04-02 00:43:00,60.9,60.9,29.91,WNW,293,0.0,0.0,100,0.00,,,0.00,WSDL version 420,2013-04-01 13:43:00,
2013-04-02 00:48:00,60.8,60.8,29.91,WNW,293,0.0,0.0,100,0.00,,,0.00,WSDL version 420,2013-04-01 13:48:00,
2013-04-02 00:53:00,-999.0,-99.9,29.91,WNW,293,0.0,0.0,-999,-99.99,,,-99.99,WSDL version 420,2013-04-01 13:53:00,
2013-04-02 00:58:00,60.7,60.7,29.91,WNW,293,0.0,0.0,100,0.00,,,0.00,WSDL version 420,2013-04-01 13:58:00,
2013-04-02 01:03:00,60.8,60.8,29.91,WNW,293,0.0,0.0,100,0.00,,,0.00,WSDL version 420,2013-04-01 14:03:00,
2013-04-02 01:13:00,61.0,61.0,29.91,WNW,293,0.0,0.0,100,0.00,,,0.00,WSDL version 420,2013-04-01 14:13:00,
2013-04-02 01:18:00,61.0,61.0,29.91,WNW,293,0.0,0.0,100,0.00,,,0.00,WSDL version 420,2013-04-01 14:18:00,
2013-04-02 01:28:00,61.1,61.1,29.91,WNW,293,0.0,0.0,100,0.00,,,0.00,WSDL version 420,2013-04-01 14:28:00,
2013-04-02 01:38:00,61.3,61.3,29.91,WNW,293,0.0,0.0,100,0.00,,,0.00,WSDL version 420,2013-04-01 14:38:00,
2013-04-02 01:43:00,61.3,61.3,29.91,WNW,293,0.0,0.0,100,0.00,,,0.00,WSDL version 420,2013-04-01 14:43:00,
2013-04-02 01:48:00,61.4,61.4,29.91,WNW,293,0.0,0.0,100,0.00,,,0.00,WSDL version 420,2013-04-01 14:48:00,
2013-04-02 01:53:00,61.5,61.5,29.91,WNW,293,0.0,0.0,100,0.00,,,0.00,WSDL version 420,2013-04-01 14:53:00,
2013-04-02 01:58:00,61.5,61.5,29.91,WNW,293,0.0,0.0,100,0.00,,,0.00,WSDL version 420,2013-04-01 14:58:00,
2013-04-02 02:03:00,61.6,61.6,29.91,WNW,293,0.0,0.0,100,0.00,,,0.00,WSDL version 420,2013-04-01 15:03:00,
2013-04-02 02:08:00,61.7,61.7,29.91,WNW,293,0.0,0.0,100,0.00,,,0.00,WSDL version 420,2013-04-01 15:08:00,
2013-04-02 02:18:00,61.7,61.7,29.91,West,270,0.0,1.3,100,-99.99,,,-99.99,WSDL version 420,2013-04-01 15:18:00,
2013-04-02 02:23:00,61.7,61.7,29.91,West,270,0.0,0.0,100,0.00,,,0.00,WSDL version 420,2013-04-01 15:23:00,
2013-04-02 02:28:00,61.5,61.5,29.91,West,270,0.0,0.0,100,0.00,,,0.00,WSDL version 420,2013-04-01 15:28:00,
2013-04-02 02:33:00,61.4,61.4,29.91,West,270,0.0,0.0,100,0.00,,,0.00,WSDL version 420,2013-04-01 15:33:00,
2013-04-02 02:43:00,61.2,61.2,29.91,West,270,0.0,0.0,100,0.00,,,0.00,WSDL version 420,2013-04-01 15:43:00,
2013-04-02 02:50:00,61.0,61.0,29.91,West,270,0.0,0.0,100,0.00,,,0.00,WSDL version 420,2013-04-01 15:50:00,
2013-04-02 02:55:00,61.0,61.0,29.91,West,270,0.0,0.0,100,0.00,,,0.00,WSDL version 420,2013-04-01 15:55:00,
2013-04-02 03:00:00,61.0,61.0,29.91,SE,131,0.0,0.0,100,0.00,,,0.00,WSDL version 420,2013-04-01 16:00:00,
2013-04-02 03:05:00,60.8,60.8,29.88,SE,135,0.0,0.0,100,0.00,,,0.00,WSDL version 420,2013-04-01 16:05:00,
2013-04-02 03:10:00,60.6,60.6,29.88,SSW,203,0.0,0.0,100,0.00,,,0.00,WSDL version 420,2013-04-01 16:10:00,
2013-04-02 03:15:00,60.5,60.5,29.88,SSW,203,0.0,0.0,100,0.00,,,0.00,WSDL version 420,2013-04-01 16:15:00,
2013-04-02 03:20:00,60.4,60.4,29.88,SSW,206,0.0,0.0,100,0.00,,,0.00,WSDL version 420,2013-04-01 16:20:00,
2013-04-02 03:25:00,60.1,60.1,29.88,WSW,248,0.0,0.0,100,0.00,,,0.00,WSDL version 420,2013-04-01 16:25:00,
2013-04-02 03:30:00,60.0,60.0,29.88,West,270,0.0,2.0,100,0.00,,,0.00,WSDL version 420,2013-04-01 16:30:00,
2013-04-02 03:35:00,59.9,59.9,29.88,West,270,0.0,2.0,100,-99.99,,,-99.99,WSDL version 420,2013-04-01 16:35:00,
2013-04-02 03:40:00,59.8,59.8,29.88,West,270,0.0,0.0,100,0.00,,,0.00,WSDL version 420,2013-04-01 16:40:00,
2013-04-02 03:45:00,59.7,59.7,29.88,West,270,0.0,0.0,100,0.00,,,0.00,WSDL version 420,2013-04-01 16:45:00,
2013-04-02 03:50:00,59.7,59.7,29.88,West,270,0.0,0.0,100,0.00,,,0.00,WSDL version 420,2013-04-01 16:50:00,
2013-04-02 03:55:00,59.7,59.7,29.88,SW,225,0.0,0.0,100,0.00,,,0.00,WSDL version 420,2013-04-01 16:55:00,
2013-04-02 04:05:00,59.8,59.8,29.88,WSW,248,0.0,0.0,100,0.00,,,0.00,WSDL version 420,2013-04-01 17:05:00,
2013-04-02 04:10:00,59.9,59.9,29.85,SSE,160,0.0,0.0,100,0.00,,,0.00,WSDL version 420,2013-04-01 17:10:00,
2013-04-02 04:15:00,59.8,59.8,29.85,SSE,158,0.0,0.0,100,0.00,,,0.00,WSDL version 420,2013-04-01 17:15:00,
2013-04-02 04:25:00,59.7,59.7,29.88,SW,215,0.0,0.0,100,0.00,,,0.00,WSDL version 420,2013-04-01 17:25:00,
2013-04-02 04:30:00,59.5,59.5,29.88,West,270,0.0,1.1,100,-99.99,,,-99.99,WSDL version 420,2013-04-01 17:30:00,
2013-04-02 04:35:00,59.4,59.4,29.88,SW,233,0.0,1.1,100,0.00,,,0.00,WSDL version 420,2013-04-01 17:35:00,
2013-04-02 04:40:00,59.2,59.2,29.88,West,270,0.0,0.0,100,0.00,,,0.00,WSDL version 420,2013-04-01 17:40:00,
2013-04-02 04:45:00,59.0,59.0,29.88,West,270,0.0,0.0,100,0.00,,,0.00,WSDL version 420,2013-04-01 17:45:00,
2013-04-02 04:50:00,58.8,58.8,29.88,WSW,248,0.0,0.0,100,0.00,,,0.00,WSDL version 420,2013-04-01 17:50:00,
2013-04-02 04:55:00,58.8,58.8,29.88,SW,233,0.0,0.0,100,0.00,,,0.00,WSDL version 420,2013-04-01 17:55:00,
2013-04-02 05:00:00,58.8,58.8,29.88,West,264,0.0,0.0,100,0.00,,,0.00,WSDL version 420,2013-04-01 18:00:00,
2013-04-02 05:05:00,58.7,58.7,29.85,West,270,0.0,0.0,100,0.00,,,0.00,WSDL version 420,2013-04-01 18:05:00,
2013-04-02 05:10:00,58.6,58.5,29.85,West,270,0.0,0.0,100,0.00,,,0.00,WSDL version 420,2013-04-01 18:10:00,
2013-04-02 05:15:00,58.5,58.5,29.85,West,270,0.0,0.0,100,0.00,,,0.00,WSDL version 420,2013-04-01 18:15:00,
2013-04-02 05:20:00,58.5,58.5,29.85,West,270,0.0,0.0,100,0.00,,,0.00,WSDL version 420,2013-04-01 18:20:00,
2013-04-02 05:25:00,58.5,58.5,29.85,West,270,0.0,0.0,100,0.00,,,0.00,WSDL version 420,2013-04-01 18:25:00,
2013-04-02 05:30:00,58.2,58.2,29.85,West,270,0.0,0.0,100,0.00,,,0.00,WSDL version 420,2013-04-01 18:30:00,
2013-04-02 05:35:00,58.1,58.1,29.88,West,270,0.0,0.0,100,0.00,,,0.00,WSDL version 420,2013-04-01 18:35:00,
2013-04-02 05:40:00,58.1,58.1,29.88,West,270,0.0,0.0,100,0.00,,,0.00,WSDL version 420,2013-04-01 18:40:00,
2013-04-02 05:45:00,58.1,58.1,29.88,West,270,0.0,0.0,100,0.00,,,0.00,WSDL version 420,2013-04-01 18:45:00,
2013-04-02 05:50:00,-999.0,-99.9,29.88,West,270,0.0,0.0,-999,0.00,,,0.00,WSDL version 420,2013-04-01 18:50:00,
2013-04-02 05:55:00,58.1,58.1,29.88,WSW,254,0.0,1.3,100,0.00,,,0.00,WSDL version 420,2013-04-01 18:55:00,
2013-04-02 06:00:00,58.3,58.3,29.88,West,264,0.0,1.3,100,-99.99,,,-99.99,WSDL version 420,2013-04-01 19:00:00,
2013-04-02 06:05:00,58.5,58.5,29.88,West,270,0.0,0.9,100,0.00,,,0.00,WSDL version 420,2013-04-01 19:05:00,
2013-04-02 06:10:00,58.5,58.5,29.88,West,270,0.0,0.0,100,0.00,,,0.00,WSDL version 420,2013-04-01 19:10:00,
2013-04-02 06:15:00,58.5,58.5,29.88,West,270,0.0,0.0,100,0.00,,,0.00,WSDL version 420,2013-04-01 19:15:00,
2013-04-02 06:20:00,58.3,58.3,29.88,West,270,0.0,0.0,100,0.00,,,0.00,WSDL version 420,2013-04-01 19:20:00,
2013-04-02 06:25:00,58.2,58.2,29.88,West,270,0.0,0.0,100,0.00,,,0.00,WSDL version 420,2013-04-01 19:25:00,
2013-04-02 06:30:00,58.2,58.2,29.88,West,270,0.0,0.0,100,0.00,,,0.00,WSDL version 420,2013-04-01 19:30:00,
2013-04-02 06:35:00,58.1,58.1,29.88,West,270,0.0,0.0,100,0.00,,,0.00,WSDL version 420,2013-04-01 19:35:00,
2013-04-02 06:40:00,58.1,58.1,29.88,West,270,0.0,0.0,100,0.00,,,0.00,WSDL version 420,2013-04-01 19:40:00,
2013-04-02 06:45:00,58.1,58.1,29.88,West,270,0.0,0.0,100,0.00,,,0.00,WSDL version 420,2013-04-01 19:45:00,
2013-04-02 06:50:00,58.0,58.0,29.88,West,270,0.0,0.0,100,0.00,,,0.00,WSDL version 420,2013-04-01 19:50:00,
2013-04-02 06:55:00,58.0,58.0,29.88,West,270,0.0,0.0,100,0.00,,,0.00,WSDL version 420,2013-04-01 19:55:00,
2013-04-02 07:00:00,58.1,58.1,29.88,West,270,0.0,0.0,100,0.00,,,0.00,WSDL version 420,2013-04-01 20:00:00,
2013-04-02 07:05:00,58.0,58.0,29.88,West,270,0.0,0.0,100,0.00,,,0.00,WSDL version 420,2013-04-01 20:05:00,
2013-04-02 07:10:00,57.9,57.9,29.88,West,270,0.0,0.0,100,0.00,,,0.00,WSDL version 420,2013-04-01 20:10:00,
2013-04-02 07:15:00,58.0,58.0,29.88,West,270,0.0,0.0,100,0.00,,,0.00,WSDL version 420,2013-04-01 20:15:00,
2013-04-02 07:20:00,57.9,57.9,29.88,SSW,203,0.0,0.0,100,0.00,,,0.00,WSDL version 420,2013-04-01 20:20:00,
2013-04-02 07:25:00,58.1,58.1,29.88,South,180,0.0,0.0,100,0.00,,,0.00,WSDL version 420,2013-04-01 20:25:00,
2013-04-02 07:30:00,58.3,58.3,29.88,SW,225,0.0,0.0,100,0.00,,,0.00,WSDL version 420,2013-04-01 20:30:00,
2013-04-02 07:35:00,58.3,58.3,29.91,SW,225,0.0,0.0,100,0.00,,,0.00,WSDL version 420,2013-04-01 20:35:00,
2013-04-02 07:40:00,58.3,58.3,29.91,SW,225,0.0,0.0,100,0.00,,,0.00,WSDL version 420,2013-04-01 20:40:00,
2013-04-02 07:45:00,58.4,58.4,29.91,WNW,293,0.0,0.0,100,0.00,,,0.00,WSDL version 420,2013-04-01 20:45:00,
2013-04-02 07:50:00,58.7,58.7,29.91,WNW,293,0.0,0.0,100,0.00,,,0.00,WSDL version 420,2013-04-01 20:50:00,
2013-04-02 07:55:00,61.3,61.3,29.91,WNW,293,0.0,0.0,100,0.00,,,0.00,WSDL version 420,2013-04-01 20:55:00,
2013-04-02 08:00:00,63.0,63.0,29.91,North,360,0.0,0.0,100,-99.99,,,-99.99,WSDL version 420,2013-04-01 21:00:00,
2013-04-02 08:05:00,64.1,64.1,29.91,NNE,13,0.0,0.0,100,0.00,,,0.00,WSDL version 420,2013-04-01 21:05:00,
2013-04-02 08:10:00,65.1,65.1,29.91,NNE,23,0.0,0.0,100,0.00,,,0.00,WSDL version 420,2013-04-01 21:10:00,
2013-04-02 08:15:00,65.3,65.3,29.91,ESE,107,0.0,0.0,100,0.00,,,0.00,WSDL version 420,2013-04-01 21:15:00,
2013-04-02 08:20:00,65.5,65.5,29.91,ENE,68,0.0,0.0,100,0.00,,,0.00,WSDL version 420,2013-04-01 21:20:00,
2013-04-02 08:25:00,65.4,65.4,29.91,ENE,68,0.0,0.0,100,0.00,,,0.00,WSDL version 420,2013-04-01 21:25:00,
2013-04-02 08:30:00,65.1,65.1,29.91,NNW,341,0.4,1.6,100,0.00,,,0.00,WSDL version 420,2013-04-01 21:30:00,
2013-04-02 08:35:00,65.5,65.5,29.91,NW,304,1.8,2.5,100,0.00,,,0.00,WSDL version 420,2013-04-01 21:35:00,
2013-04-02 08:40:00,66.0,66.0,29.91,NW,305,2.3,3.1,100,0.00,,,0.00,WSDL version 420,2013-04-01 21:40:00,
2013-04-02 08:45:00,66.4,66.4,29.91,WNW,285,2.7,3.1,100,0.00,,,0.00,WSDL version 420,2013-04-01 21:45:00,
2013-04-02 08:50:00,66.8,66.8,29.91,WNW,296,2.8,3.6,100,0.00,,,0.00,WSDL version 420,2013-04-01 21:50:00,
2013-04-02 08:55:00,67.1,67.1,29.91,West,280,3.4,4.3,100,-99.99,,,-99.99,WSDL version 420,2013-04-01 21:55:00,
2013-04-02 09:00:00,67.7,67.3,29.91,WNW,298,2.7,4.3,98,0.00,,,0.00,WSDL version 420,2013-04-01 22:00:00,
2013-04-02 09:05:00,68.1,66.9,29.91,WNW,302,2.4,4.0,94,0.00,,,0.00,WSDL version 420,2013-04-01 22:05:00,
2013-04-02 09:10:00,68.6,66.3,29.91,WNW,296,2.7,3.8,91,0.00,,,0.00,WSDL version 420,2013-04-01 22:10:00,
2013-04-02 09:15:00,69.2,66.1,29.91,NW,305,1.8,3.8,90,0.00,,,0.00,WSDL version 420,2013-04-01 22:15:00,
2013-04-02 09:20:00,70.1,66.4,29.91,WNW,289,2.1,3.8,88,0.00,,,0.00,WSDL version 420,2013-04-01 22:20:00,
2013-04-02 09:25:00,70.7,65.5,29.91,WNW,289,1.8,3.8,81,0.00,,,0.00,WSDL version 420,2013-04-01 22:25:00,
2013-04-02 09:30:00,71.5,64.7,29.91,West,267,2.6,3.8,78,0.00,,,0.00,WSDL version 420,2013-04-01 22:30:00,
2013-04-02 09:35:00,71.9,63.8,29.88,NW,309,2.0,4.0,75,-99.99,,,-99.99,WSDL version 420,2013-04-01 22:35:00,
2013-04-02 09:40:00,72.7,63.6,29.88,WNW,300,3.1,4.0,71,0.00,,,0.00,WSDL version 420,2013-04-01 22:40:00,
2013-04-02 09:45:00,73.6,63.1,29.88,WNW,296,1.5,4.0,70,0.00,,,0.00,WSDL version 420,2013-04-01 22:45:00,
2013-04-02 09:50:00,74.4,62.0,29.88,NW,318,2.1,4.0,63,0.00,,,0.00,WSDL version 420,2013-04-01 22:50:00,
2013-04-02 09:55:00,75.7,61.6,29.91,NW,315,1.7,3.8,60,0.00,,,0.00,WSDL version 420,2013-04-01 22:55:00,
2013-04-02 10:00:00,76.5,59.7,29.91,NW,315,2.5,5.4,56,0.00,,,0.00,WSDL version 420,2013-04-01 23:00:00,
2013-04-02 10:05:00,76.6,56.7,29.91,WNW,283,3.3,5.6,51,0.00,,,0.00,WSDL version 420,2013-04-01 23:05:00,
2013-04-02 10:10:00,77.5,56.5,29.91,WNW,285,3.4,5.6,45,0.00,,,0.00,WSDL version 420,2013-04-01 23:10:00,
2013-04-02 10:15:00,77.4,54.5,29.91,West,280,2.4,5.6,46,0.00,,,0.00,WSDL version 420,2013-04-01 23:15:00,
2013-04-02 10:20:00,77.8,53.9,29.91,NW,305,3.6,5.4,43,0.00,,,0.00,WSDL version 420,2013-04-01 23:20:00,
2013-04-02 10:25:00,78.3,53.6,29.91,West,280,2.6,5.6,42,0.00,,,0.00,WSDL version 420,2013-04-01 23:25:00,
2013-04-02 10:30:00,78.2,53.0,29.91,WNW,296,4.6,8.5,42,0.00,,,0.00,WSDL version 420,2013-04-01 23:30:00,
2013-04-02 10:35:00,79.2,54.3,29.91,NW,312,2.7,8.5,41,0.00,,,0.00,WSDL version 420,2013-04-01 23:35:00,
2013-04-02 10:40:00,79.8,54.7,29.91,NW,321,2.6,6.3,42,0.00,,,0.00,WSDL version 420,2013-04-01 23:40:00,
2013-04-02 10:45:00,80.6,54.4,29.91,WNW,299,3.1,5.6,40,0.00,,,0.00,WSDL version 420,2013-04-01 23:45:00,
2013-04-02 10:50:00,80.9,52.9,29.91,NW,311,2.7,6.5,37,0.00,,,0.00,WSDL version 420,2013-04-01 23:50:00,
2013-04-02 10:55:00,80.9,51.5,29.91,NW,306,2.6,7.4,36,0.00,,,0.00,WSDL version 420,2013-04-01 23:55:00,
2013-04-02 11:00:00,81.3,51.6,29.91,WNW,297,3.4,7.4,36,0.00,,,0.00,WSDL version 420,2013-04-02 00:00:00,
2013-04-02 11:05:00,82.1,53.2,29.91,NW,304,1.7,4.7,36,-99.99,,,-99.99,WSDL version 420,2013-04-02 00:05:00,
2013-04-02 11:10:00,82.5,51.9,29.91,West,273,2.6,4.7,35,0.00,,,0.00,WSDL version 420,2013-04-02 00:10:00,
2013-04-02 11:15:00,82.6,52.4,29.91,WNW,302,4.3,5.6,35,0.00,,,0.00,WSDL version 420,2013-04-02 00:15:00,
2013-04-02 11:20:00,82.6,53.0,29.91,WNW,299,2.4,5.6,36,0.00,,,0.00,WSDL version 420,2013-04-02 00:20:00,
2013-04-02 11:25:00,82.8,51.3,29.88,WNW,293,4.0,7.6,33,0.00,,,0.00,WSDL version 420,2013-04-02 00:25:00,
2013-04-02 11:30:00,82.5,51.2,29.88,WNW,295,4.6,7.6,34,0.00,,,0.00,WSDL version 420,2013-04-02 00:30:00,
2013-04-02 11:35:00,82.6,52.8,29.88,NW,309,2.6,7.4,36,0.00,,,0.00,WSDL version 420,2013-04-02 00:35:00,
2013-04-02 11:40:00,83.9,53.3,29.88,East,84,1.8,5.4,35,0.00,,,0.00,WSDL version 420,2013-04-02 00:40:00,
2013-04-02 11:45:00,83.7,51.9,29.88,West,270,3.8,7.2,33,0.00,,,0.00,WSDL version 420,2013-04-02 00:45:00,
2013-04-02 11:50:00,83.2,50.6,29.88,West,263,3.8,7.2,33,0.00,,,0.00,WSDL version 420,2013-04-02 00:50:00,
2013-04-02 11:55:00,84.0,51.9,29.91,West,278,2.5,6.5,33,0.00,,,0.00,WSDL version 420,2013-04-02 00:55:00,
2013-04-02 12:00:00,84.4,51.2,29.91,West,280,3.0,6.5,31,0.00,,,0.00,WSDL version 420,2013-04-02 01:00:00,
2013-04-02 12:05:00,84.0,50.7,29.91,NE,42,2.5,6.5,32,0.00,,,0.00,WSDL version 420,2013-04-02 01:05:00,
2013-04-02 12:10:00,84.1,50.5,29.88,West,276,3.9,8.1,31,0.00,,,0.00,WSDL version 420,2013-04-02 01:10:00,
2013-04-02 12:15:00,84.2,50.9,29.88,ENE,68,2.2,8.1,32,0.00,,,0.00,WSDL version 420,2013-04-02 01:15:00,
2013-04-02 12:25:00,84.2,50.8,29.91,West,270,4.5,7.4,31,0.00,,,0.00,WSDL version 420,2013-04-02 01:25:00,
2013-04-02 12:30:00,84.4,50.2,29.91,NNE,15,2.3,7.6,31,0.00,,,0.00,WSDL version 420,2013-04-02 01:30:00,
2013-04-02 12:35:00,85.8,51.7,29.91,West,275,3.6,7.6,30,0.00,,,0.00,WSDL version 420,2013-04-02 01:35:00,
2013-04-02 12:40:00,86.1,51.1,29.91,East,87,2.5,4.3,30,0.00,,,0.00,WSDL version 420,2013-04-02 01:40:00,
2013-04-02 12:45:00,85.8,51.3,29.91,North,10,2.4,4.3,30,0.00,,,0.00,WSDL version 420,2013-04-02 01:45:00,
2013-04-02 12:55:00,86.7,51.6,29.91,SW,219,3.0,4.7,30,0.00,,,0.00,WSDL version 420,2013-04-02 01:55:00,
2013-04-02 13:00:00,86.2,51.1,29.91,NNE,26,3.3,5.8,30,0.00,,,0.00,WSDL version 420,2013-04-02 02:00:00,
2013-04-02 13:05:00,86.7,51.6,29.91,South,177,3.0,5.8,30,0.00,,,0.00,WSDL version 420,2013-04-02 02:05:00,
2013-04-02 13:15:00,87.7,52.0,29.91,SSW,211,2.3,6.5,29,0.00,,,0.00,WSDL version 420,2013-04-02 02:15:00,
2013-04-02 13:20:00,88.8,52.7,29.91,WNW,286,2.5,3.8,29,0.00,,,0.00,WSDL version 420,2013-04-02 02:20:00,
2013-04-02 13:25:00,88.8,52.5,29.88,West,267,4.4,10.3,29,-99.99,,,-99.99,WSDL version 420,2013-04-02 02:25:00,
2013-04-02 13:30:00,88.5,52.2,29.88,NW,315,3.4,10.3,29,0.00,,,0.00,WSDL version 420,2013-04-02 02:30:00,
2013-04-02 13:35:00,88.9,52.6,29.88,WSW,251,3.9,6.7,29,0.00,,,0.00,WSDL version 420,2013-04-02 02:35:00,
2013-04-02 13:40:00,-999.0,-99.9,29.88,North,11,2.7,6.7,-999,0.00,,,0.00,WSDL version 420,2013-04-02 02:40:00,
2013-04-02 13:45:00,89.0,52.6,29.88,NNW,341,3.4,4.3,29,0.00,,,0.00,WSDL version 420,2013-04-02 02:45:00,
2013-04-02 13:50:00,88.6,52.3,29.88,West,270,2.0,4.9,29,0.00,,,0.00,WSDL version 420,2013-04-02 02:50:00,
2013-04-02 13:55:00,87.1,51.5,29.88,WSW,256,2.3,6.5,30,0.00,,,0.00,WSDL version 420,2013-04-02 02:55:00,
2013-04-02 14:00:00,87.3,51.8,29.88,NE,34,3.2,6.5,30,0.00,,,0.00,WSDL version 420,2013-04-02 03:00:00,
2013-04-02 14:05:00,86.5,51.2,29.88,ENE,68,4.0,8.7,29,0.00,,,0.00,WSDL version 420,2013-04-02 03:05:00,
2013-04-02 14:10:00,84.4,49.9,29.88,ENE,60,4.4,8.7,31,0.00,,,0.00,WSDL version 420,2013-04-02 03:10:00,
2013-04-02 14:15:00,82.4,49.4,29.88,ENE,62,5.8,7.8,33,0.00,,,0.00,WSDL version 420,2013-04-02 03:15:00,
2013-04-02 14:20:00,81.9,50.0,29.88,East,90,3.6,7.8,33,0.00,,,0.00,WSDL version 420,2013-04-02 03:20:00,
2013-04-02 14:25:00,82.3,50.3,29.85,NE,53,7.4,12.5,33,0.00,,,0.00,WSDL version 420,2013-04-02 03:25:00,
2013-04-02 14:30:00,81.0,49.7,29.85,SW,236,2.7,12.5,34,-99.99,,,-99.99,WSDL version 420,2013-04-02 03:30:00,
2013-04-02 14:35:00,82.3,50.7,29.88,ESE,106,4.4,9.8,34,0.00,,,0.00,WSDL version 420,2013-04-02 03:35:00,
2013-04-02 14:40:00,82.3,50.9,29.88,ENE,71,3.6,7.8,34,0.00,,,0.00,WSDL version 420,2013-04-02 03:40:00,
2013-04-02 14:45:00,83.1,51.0,29.88,SSW,209,3.7,6.5,33,0.00,,,0.00,WSDL version 420,2013-04-02 03:45:00,
2013-04-02 14:50:00,83.2,50.7,29.88,North,360,4.4,8.1,32,0.00,,,0.00,WSDL version 420,2013-04-02 03:50:00,
2013-04-02 14:55:00,82.5,50.5,29.88,ENE,71,5.9,8.1,33,0.00,,,0.00,WSDL version 420,2013-04-02 03:55:00,
2013-04-02 15:00:00,83.0,51.5,29.88,ESE,109,3.6,7.6,34,0.00,,,0.00,WSDL version 420,2013-04-02 04:00:00,
2013-04-02 15:05:00,84.2,51.8,29.85,NE,40,3.6,8.5,32,0.00,,,0.00,WSDL version 420,2013-04-02 04:05:00,
2013-04-02 15:10:00,84.4,51.1,29.85,East,80,4.3,8.5,32,0.00,,,0.00,WSDL version 420,2013-04-02 04:10:00,
2013-04-02 15:15:00,84.5,51.1,29.85,South,174,2.7,7.8,32,0.00,,,0.00,WSDL version 420,2013-04-02 04:15:00,
2013-04-02 15:20:00,84.9,50.9,29.88,ENE,64,4.1,6.3,31,0.00,,,0.00,WSDL version 420,2013-04-02 04:20:00,
2013-04-02 15:25:00,83.4,50.3,29.88,SE,146,3.4,7.6,32,0.00,,,0.00,WSDL version 420,2013-04-02 04:25:00,
2013-04-02 15:30:00,83.3,50.4,29.88,East,94,3.2,7.8,32,0.00,,,0.00,WSDL version 420,2013-04-02 04:30:00,
2013-04-02 15:35:00,83.5,51.2,29.88,NE,45,3.7,7.8,33,-99.99,,,-99.99,WSDL version 420,2013-04-02 04:35:00,
2013-04-02 15:40:00,82.9,50.6,29.88,SE,131,4.3,7.8,33,0.00,,,0.00,WSDL version 420,2013-04-02 04:40:00,
2013-04-02 15:45:00,82.7,50.7,29.88,East,98,2.7,7.4,33,0.00,,,0.00,WSDL version 420,2013-04-02 04:45:00,
2013-04-02 15:50:00,83.0,50.7,29.85,ENE,76,3.5,7.6,33,0.00,,,0.00,WSDL version 420,2013-04-02 04:50:00,
2013-04-02 15:55:00,83.2,51.1,29.85,East,79,3.9,7.6,33,0.00,,,0.00,WSDL version 420,2013-04-02 04:55:00,
2013-04-02 16:00:00,82.6,51.0,29.85,ENE,77,2.5,6.3,34,0.00,,,0.00,WSDL version 420,2013-04-02 05:00:00,
2013-04-02 16:05:00,83.0,51.7,29.85,SSE,151,4.0,7.2,34,0.00,,,0.00,WSDL version 420,2013-04-02 05:05:00,
2013-04-02 16:10:00,82.8,51.6,29.85,ENE,62,2.9,7.2,34,0.00,,,0.00,WSDL version 420,2013-04-02 05:10:00,
2013-04-02 16:15:00,83.4,51.9,29.85,SSW,210,1.9,4.9,33,0.00,,,0.00,WSDL version 420,2013-04-02 05:15:00,
2013-04-02 16:20:00,82.9,51.0,29.85,North,3,2.3,7.2,33,0.00,,,0.00,WSDL version 420,2013-04-02 05:20:00,
2013-04-02 16:25:00,81.9,50.8,29.85,East,90,3.5,7.2,35,0.00,,,0.00,WSDL version 420,2013-04-02 05:25:00,
2013-04-02 16:30:00,81.7,51.9,29.85,ESE,120,3.4,6.9,36,0.00,,,0.00,WSDL version 420,2013-04-02 05:30:00,
2013-04-02 16:35:00,81.6,51.9,29.85,ENE,71,4.8,7.6,36,0.00,,,0.00,WSDL version 420,2013-04-02 05:35:00,
2013-04-02 16:40:00,81.4,52.3,29.88,ESE,119,3.1,7.8,37,0.00,,,0.00,WSDL version 420,2013-04-02 05:40:00,
2013-04-02 16:45:00,81.4,52.3,29.88,North,349,2.0,7.8,37,0.00,,,0.00,WSDL version 420,2013-04-02 05:45:00,
2013-04-02 16:50:00,81.6,52.1,29.88,SE,124,3.2,6.3,36,0.00,,,0.00,WSDL version 420,2013-04-02 05:50:00,
2013-04-02 16:55:00,81.0,51.7,29.88,ESE,122,3.4,6.5,37,0.00,,,0.00,WSDL version 420,2013-04-02 05:55:00,
2013-04-02 17:00:00,81.0,51.8,29.88,South,188,3.6,6.5,36,0.00,,,0.00,WSDL version 420,2013-04-02 06:00:00,
2013-04-02 17:05:00,80.9,51.9,29.88,East,100,1.7,5.8,37,0.00,,,0.00,WSDL version 420,2013-04-02 06:05:00,
2013-04-02 17:10:00,80.7,52.5,29.88,ESE,121,3.9,5.8,38,0.00,,,0.00,WSDL version 420,2013-04-02 06:10:00,
2013-04-02 17:15:00,79.9,53.2,29.88,East,80,2.9,7.6,40,0.00,,,0.00,WSDL version 420,2013-04-02 06:15:00,
2013-04-02 17:20:00,79.9,53.4,29.88,ENE,76,4.9,7.6,40,0.00,,,0.00,WSDL version 420,2013-04-02 06:20:00,
2013-04-02 17:25:00,79.1,53.2,29.88,ENE,64,2.9,7.6,41,-99.99,,,-99.99,WSDL version 420,2013-04-02 06:25:00,
2013-04-02 17:30:00,79.4,53.7,29.88,NW,320,2.7,5.4,41,0.00,,,0.00,WSDL version 420,2013-04-02 06:30:00,
2013-04-02 17:35:00,79.5,53.8,29.88,SSE,151,2.8,4.3,41,0.00,,,0.00,WSDL version 420,2013-04-02 06:35:00,
2013-04-02 17:40:00,79.2,53.3,29.88,ESE,109,3.0,8.1,41,0.00,,,0.00,WSDL version 420,2013-04-02 06:40:00,
2013-04-02 17:45:00,78.4,53.5,29.88,NNW,340,2.2,8.1,42,0.00,,,0.00,WSDL version 420,2013-04-02 06:45:00,
2013-04-02 17:50:00,78.6,53.6,29.91,NNW,328,2.1,4.9,42,0.00,,,0.00,WSDL version 420,2013-04-02 06:50:00,
2013-04-02 17:55:00,78.5,53.5,29.91,NNW,332,2.2,4.9,42,0.00,,,0.00,WSDL version 420,2013-04-02 06:55:00,
2013-04-02 18:00:00,78.4,53.4,29.91,WSW,252,2.8,4.9,42,0.00,,,0.00,WSDL version 420,2013-04-02 07:00:00,
2013-04-02 18:05:00,78.2,53.3,29.91,ESE,109,2.0,4.9,42,0.00,,,0.00,WSDL version 420,2013-04-02 07:05:00,
2013-04-02 18:10:00,77.7,53.2,29.91,WNW,289,1.0,4.0,43,0.00,,,0.00,WSDL version 420,2013-04-02 07:10:00,
2013-04-02 18:15:00,77.0,53.2,29.91,NE,53,2.6,6.7,44,-99.99,,,-99.99,WSDL version 420,2013-04-02 07:15:00,
2013-04-02 18:20:00,75.8,53.0,29.91,WNW,293,1.5,6.7,45,0.00,,,0.00,WSDL version 420,2013-04-02 07:20:00,
2013-04-02 18:25:00,74.9,53.3,29.91,ENE,71,1.7,3.4,48,0.00,,,0.00,WSDL version 420,2013-04-02 07:25:00,
2013-04-02 18:30:00,73.9,53.5,29.91,NNW,331,0.9,3.1,49,0.00,,,0.00,WSDL version 420,2013-04-02 07:30:00,
2013-04-02 18:35:00,73.1,53.8,29.91,North,6,1.4,3.1,53,0.00,,,0.00,WSDL version 420,2013-04-02 07:35:00,
2013-04-02 18:40:00,72.3,54.5,29.91,ESE,106,1.6,3.1,54,0.00,,,0.00,WSDL version 420,2013-04-02 07:40:00,
2013-04-02 18:45:00,71.6,55.0,29.91,SSW,211,0.6,2.7,57,0.00,,,0.00,WSDL version 420,2013-04-02 07:45:00,
2013-04-02 18:50:00,71.1,55.0,29.91,South,169,0.9,3.8,57,0.00,,,0.00,WSDL version 420,2013-04-02 07:50:00,
2013-04-02 18:55:00,70.6,55.8,29.91,WNW,286,1.0,3.8,59,0.00,,,0.00,WSDL version 420,2013-04-02 07:55:00,
2013-04-02 19:00:00,70.0,56.0,29.91,SSW,209,0.8,2.0,62,0.00,,,0.00,WSDL version 420,2013-04-02 08:00:00,
2013-04-02 19:05:00,69.6,56.3,29.91,South,186,0.0,2.0,64,0.00,,,0.00,WSDL version 420,2013-04-02 08:05:00,
2013-04-02 19:10:00,69.1,56.0,29.91,ENE,77,0.0,0.0,63,0.00,,,0.00,WSDL version 420,2013-04-02 08:10:00,
2013-04-02 19:15:00,68.3,56.0,29.91,SE,141,0.0,0.0,66,0.00,,,0.00,WSDL version 420,2013-04-02 08:15:00,
2013-04-02 19:20:00,67.9,56.5,29.88,SSE,150,0.0,0.0,68,0.00,,,0.00,WSDL version 420,2013-04-02 08:20:00,
2013-04-02 19:30:00,67.0,56.6,29.88,SE,135,0.0,0.9,70,0.00,,,0.00,WSDL version 420,2013-04-02 08:30:00,
2013-04-02 19:35:00,66.7,56.5,29.91,SE,135,0.0,1.1,70,0.00,,,0.00,WSDL version 420,2013-04-02 08:35:00,
2013-04-02 19:45:00,66.1,56.5,29.91,SE,135,0.0,0.0,72,0.00,,,0.00,WSDL version 420,2013-04-02 08:45:00,
2013-04-02 19:50:00,65.7,56.4,29.91,SE,125,0.0,0.0,72,0.00,,,0.00,WSDL version 420,2013-04-02 08:50:00,
2013-04-02 19:55:00,65.4,56.7,29.88,ESE,113,0.4,1.3,74,0.00,,,0.00,WSDL version 420,2013-04-02 08:55:00,
2013-04-02 20:00:00,65.2,56.8,29.88,ESE,113,0.0,1.3,75,0.00,,,0.00,WSDL version 420,2013-04-02 09:00:00,
2013-04-02 20:05:00,65.0,56.9,29.91,ESE,113,0.0,0.0,76,0.00,,,0.00,WSDL version 420,2013-04-02 09:05:00,
2013-04-02 20:10:00,64.8,57.6,29.91,ESE,113,0.0,0.0,78,0.00,,,0.00,WSDL version 420,2013-04-02 09:10:00,
2013-04-02 20:15:00,64.6,58.0,29.91,ESE,113,0.0,0.0,80,0.00,,,0.00,WSDL version 420,2013-04-02 09:15:00,
2013-04-02 20:20:00,64.4,58.1,29.91,ESE,113,0.0,0.0,80,0.00,,,0.00,WSDL version 420,2013-04-02 09:20:00,
2013-04-02 20:25:00,64.3,58.6,29.91,ESE,113,0.0,0.0,82,0.00,,,0.00,WSDL version 420,2013-04-02 09:25:00,
2013-04-02 20:30:00,64.0,58.6,29.91,ESE,113,0.0,0.0,83,0.00,,,0.00,WSDL version 420,2013-04-02 09:30:00,
2013-04-02 20:35:00,63.8,58.7,29.91,ESE,113,0.0,0.0,83,0.00,,,0.00,WSDL version 420,2013-04-02 09:35:00,
2013-04-02 20:40:00,63.6,58.6,29.94,ESE,113,0.0,0.0,84,0.00,,,0.00,WSDL version 420,2013-04-02 09:40:00,
2013-04-02 20:45:00,63.4,59.0,29.94,ESE,113,0.0,0.0,86,0.00,,,0.00,WSDL version 420,2013-04-02 09:45:00,
2013-04-02 20:50:00,63.3,59.2,29.94,ESE,113,0.0,0.0,87,0.00,,,0.00,WSDL version 420,2013-04-02 09:50:00,
2013-04-02 20:55:00,63.1,59.1,29.94,ESE,113,0.0,0.0,87,0.00,,,0.00,WSDL version 420,2013-04-02 09:55:00,
2013-04-02 21:00:00,63.1,59.4,29.94,ESE,113,0.0,0.0,88,0.00,,,0.00,WSDL version 420,2013-04-02 10:00:00,
2013-04-02 21:05:00,63.0,59.3,29.94,ESE,113,0.0,0.0,88,0.00,,,0.00,WSDL version 420,2013-04-02 10:05:00,
2013-04-02 21:10:00,62.9,59.5,29.94,ESE,113,0.0,0.0,89,0.00,,,0.00,WSDL version 420,2013-04-02 10:10:00,
2013-04-02 21:15:00,62.8,59.4,29.94,ESE,113,0.0,0.0,89,0.00,,,0.00,WSDL version 420,2013-04-02 10:15:00,
2013-04-02 21:20:00,62.8,59.5,29.94,ESE,113,0.0,0.0,89,0.00,,,0.00,WSDL version 420,2013-04-02 10:20:00,
2013-04-02 21:25:00,62.7,59.4,29.94,ESE,113,0.0,0.0,90,0.00,,,0.00,WSDL version 420,2013-04-02 10:25:00,
2013-04-02 21:35:00,62.6,59.6,29.94,ESE,113,0.0,0.0,90,0.00,,,0.00,WSDL version 420,2013-04-02 10:35:00,
2013-04-02 21:40:00,62.6,60.0,29.94,ESE,113,0.0,0.0,91,0.00,,,0.00,WSDL version 420,2013-04-02 10:40:00,
2013-04-02 21:45:00,62.6,60.0,29.94,ESE,113,0.0,0.0,92,0.00,,,0.00,WSDL version 420,2013-04-02 10:45:00,
2013-04-02 21:50:00,62.5,60.1,29.97,ESE,113,0.0,0.0,92,0.00,,,0.00,WSDL version 420,2013-04-02 10:50:00,
2013-04-02 21:55:00,62.4,60.1,29.97,ESE,113,0.0,0.0,92,0.00,,,0.00,WSDL version 420,2013-04-02 10:55:00,
2013-04-02 22:00:00,62.2,60.3,29.97,ESE,113,0.0,0.0,93,0.00,,,0.00,WSDL version 420,2013-04-02 11:00:00,
2013-04-02 22:05:00,62.2,60.3,29.97,ESE,113,0.0,0.0,93,0.00,,,0.00,WSDL version 420,2013-04-02 11:05:00,
2013-04-02 22:10:00,62.1,60.1,29.97,ESE,113,0.0,0.0,93,0.00,,,0.00,WSDL version 420,2013-04-02 11:10:00,
2013-04-02 22:15:00,61.9,60.0,29.97,ESE,113,0.0,0.0,93,0.00,,,0.00,WSDL version 420,2013-04-02 11:15:00,
2013-04-02 22:20:00,61.9,60.0,29.97,ESE,113,0.0,0.0,94,0.00,,,0.00,WSDL version 420,2013-04-02 11:20:00,
2013-04-02 22:25:00,62.0,60.4,29.97,ESE,113,0.0,0.0,94,0.00,,,0.00,WSDL version 420,2013-04-02 11:25:00,
2013-04-02 22:30:00,61.9,60.3,29.97,ESE,113,0.0,0.0,94,0.00,,,0.00,WSDL version 420,2013-04-02 11:30:00,
2013-04-02 22:35:00,61.9,60.3,29.97,ESE,113,0.0,0.0,94,0.00,,,0.00,WSDL version 420,2013-04-02 11:35:00,
2013-04-02 22:40:00,61.9,60.3,29.97,ESE,113,0.0,0.0,94,0.00,,,0.00,WSDL version 420,2013-04-02 11:40:00,
2013-04-02 22:45:00,61.9,60.3,29.97,WSW,248,0.0,0.0,94,0.00,,,0.00,WSDL version 420,2013-04-02 11:45:00,
2013-04-02 22:50:00,62.0,60.5,29.97,South,188,0.0,0.0,94,0.00,,,0.00,WSDL version 420,2013-04-02 11:50:00,
2013-04-02 22:55:00,62.1,60.8,29.97,SSE,165,0.0,0.0,96,0.00,,,0.00,WSDL version 420,2013-04-02 11:55:00,
2013-04-02 23:00:00,62.1,60.8,29.97,SW,225,0.0,0.0,96,0.00,,,0.00,WSDL version 420,2013-04-02 12:00:00,
2013-04-02 23:05:00,62.1,60.8,29.97,South,180,0.0,0.0,96,0.00,,,0.00,WSDL version 420,2013-04-02 12:05:00,
2013-04-02 23:10:00,62.2,60.9,29.97,SSW,193,0.0,1.1,96,0.00,,,0.00,WSDL version 420,2013-04-02 12:10:00,
2013-04-02 23:15:00,62.3,61.2,29.97,SW,218,0.0,1.1,97,0.00,,,0.00,WSDL version 420,2013-04-02 12:15:00,
2013-04-02 23:20:00,62.4,61.5,29.97,SW,222,0.0,1.1,97,0.00,,,0.00,WSDL version 420,2013-04-02 12:20:00,
2013-04-02 23:25:00,62.4,61.5,29.97,WSW,248,0.0,0.0,97,0.00,,,0.00,WSDL version 420,2013-04-02 12:25:00,
2013-04-02 23:30:00,62.4,61.4,29.97,SW,225,0.0,0.0,97,0.00,,,0.00,WSDL version 420,2013-04-02 12:30:00,
2013-04-02 23:35:00,62.3,61.5,29.97,SW,225,0.0,0.9,98,0.00,,,0.00,WSDL version 420,2013-04-02 12:35:00,
2013-04-02 23:40:00,62.2,61.4,29.97,SE,135,0.0,0.9,97,0.00,,,0.00,WSDL version 420,2013-04-02 12:40:00,
2013-04-02 23:45:00,62.2,61.6,29.97,SW,225,0.0,0.9,98,0.00,,,0.00,WSDL version 420,2013-04-02 12:45:00,
2013-04-02 23:50:00,62.2,61.6,29.97,SW,225,0.0,0.0,98,0.00,,,0.00,WSDL version 420,2013-04-02 12:50:00,
2013-04-02 23:55:00,62.2,61.6,29.97,SSW,203,0.0,0.0,98,0.00,,,0.00,WSDL version 420,2013-04-02 12:55:00,